QPF
0.02 0.02 0.02 0.02 0.02 0.02 0.02 0.01 0.00 0.00 0.00 0.00 0.00 0.00 0.00 0.00 0.00 0.00 0.00 0.00 0.00 0.00 0.00 0.00 0.01 0.01 0.01 0.01 0.01 0.01 0.01 0.01 0.01 0.03 0.03 0.02 0.02 0.02 0.02 0.02 0.02 0.02 0.02
0.02 0.02 0.02 0.01 0.02 0.01 0.01 0.01 0.00 0.00 0.00 0.00 0.00 0.00 0.00 0.00 0.00 0.00 0.00 0.00 0.00 0.00 0.00 0.01 0.01 0.01 0.02 0.01 0.01 0.01 0.01 0.01 0.01 0.03 0.04 0.03 0.03 0.03 0.03 0.03 0.02 0.02 0.02
0.01 0.01 0.01 0.01 0.02 0.02 0.01 0.01 0.01 0.00 0.00 0.00 0.00 0.00 0.00 0.00 0.00 0.00 0.00 0.00 0.00 0.00 0.00 0.01 0.01 0.01 0.01 0.01 0.01 0.01 0.02 0.02 0.02 0.01 0.02 0.03 0.03 0.04 0.04 0.03 0.02 0.02 0.02
0.01 0.01 0.00 0.01 0.01 0.02 0.02 0.01 0.01 0.00 0.00 0.00 0.00 0.00 0.00 0.00 0.00 0.00 0.00 0.00 0.00 0.00 0.00 0.00 0.00 0.01 0.01 0.01 0.01 0.01 0.01 0.02 0.02 0.02 0.01 0.01 0.02 0.03 0.03 0.02 0.02 0.01 0.01
0.01 0.01 0.00 0.00 0.01 0.02 0.02 0.01 0.01 0.00 0.00 0.00 0.00 0.01 0.00 0.00 0.00 0.00 0.00 0.00 0.00 0.00 0.01 0.01 0.01 0.01 0.01 0.01 0.00 0.01 0.01 0.01 0.01 0.01 0.01 0.01 0.01 0.02 0.03 0.03 0.03 0.01 0.01
0.01 0.01 0.00 0.00 0.01 0.02 0.02 0.01 0.01 0.00 0.00 0.01 0.01 0.01 0.01 0.00 0.00 0.00 0.00 0.00 0.00 0.00 0.00 0.00 0.00 0.01 0.01 0.01 0.01 0.01 0.01 0.01 0.01 0.01 0.01 0.02 0.02 0.02 0.03 0.02 0.02 0.01 0.00
0.00 0.01 0.00 0.00 0.01 0.02 0.02 0.02 0.01 0.01 0.01 0.01 0.01 0.01 0.01 0.01 0.00 0.00 0.00 0.00 0.00 0.00 0.00 0.00 0.00 0.00 0.00 0.00 0.00 0.01 0.00 0.01 0.01 0.01 0.01 0.01 0.01 0.02 0.03 0.02 0.01 0.01 0.00
0.00 0.01 0.01 0.01 0.01 0.02 0.01 0.01 0.01 0.01 0.01 0.01 0.01 0.02 0.01 0.01 0.00 0.00 0.00 0.00 0.00 0.00 0.00 0.00 0.00 0.00 0.00 0.00 0.00 0.00 0.00 0.00 0.00 0.01 0.01 0.01 0.02 0.02 0.02 0.02 0.02 0.01 0.01
0.00 0.00 0.01 0.01 0.01 0.01 0.01 0.01 0.01 0.00 0.00 0.01 0.01 0.01 0.01 0.01 0.00 0.00 0.00 0.00 0.00 0.00 0.00 0.00 0.00 0.00 0.00 0.00 0.00 0.00 0.00 0.00 0.00 0.01 0.01 0.01 0.02 0.02 0.01 0.01 0.02 0.02 0.02
0.00 0.00 0.00 0.01 0.01 0.01 0.01 0.01 0.00 0.00 0.00 0.00 0.00 0.00 0.00 0.00 0.00 0.00 0.00 0.00 0.00 0.00 0.00 0.00 0.00 0.00 0.00 0.00 0.00 0.00 0.00 0.00 0.00 0.00 0.01 0.01 0.01 0.02 0.02 0.01 0.01 0.01 0.01
0.00 0.00 0.00 0.01 0.01 0.01 0.00 0.01 0.00 0.00 0.00 0.00 0.00 0.00 0.00 0.00 0.00 0.00 0.00 0.00 0.00 0.00 0.00 0.00 0.00 0.00 0.00 0.00 0.00 0.00 0.00 0.00 0.00 0.00 0.00 0.01 0.01 0.02 0.01 0.01 0.01 0.01 0.01
0.00 0.00 0.00 0.01 0.01 0.01 0.01 0.01 0.00 0.00 0.00 0.00 0.00 0.00 0.00 0.01 0.00 0.00 0.00 0.00 0.00 0.00 0.00 0.00 0.00 0.00 0.00 0.00 0.00 0.00 0.00 0.00 0.00 0.00 0.00 0.00 0.00 0.01 0.01 0.01 0.01 0.01 0.01
0.01 0.00 0.00 0.00 0.01 0.01 0.01 0.01 0.01 0.00 0.00 0.00 0.00 0.00 0.00 0.00 0.00 0.00 0.00 0.00 0.00 0.00 0.00 0.00 0.00 0.00 0.00 0.00 0.00 0.00 0.00 0.00 0.00 0.00 0.00 0.00 0.00 0.00 0.01 0.01 0.01 0.01 0.01
0.01 0.01 0.00 0.00 0.00 0.00 0.01 0.01 0.01 0.00 0.00 0.00 0.00 0.01 0.01 0.00 0.00 0.00 0.00 0.00 0.00 0.00 0.00 0.00 0.00 0.00 0.00 0.00 0.00 0.00 0.00 0.00 0.00 0.00 0.00 0.00 0.00 0.01 0.01 0.01 0.01 0.00 0.00
0.01 0.00 0.00 0.00 0.00 0.00 0.00 0.01 0.01 0.00 0.00 0.00 0.00 0.01 0.01 0.00 0.00 0.00 0.00 0.00 0.00 0.00 0.00 0.00 0.00 0.00 0.00 0.00 0.00 0.00 0.00 0.00 0.00 0.00 0.00 0.00 0.00 0.00 0.00 0.00 0.01 0.01 0.01
0.01 0.01 0.00 0.00 0.00 0.00 0.00 0.00 0.00 0.00 0.00 0.01 0.00 0.00 0.00 0.00 0.00 0.00 0.00 0.00 0.00 0.00 0.00 0.00 0.00 0.00 0.00 0.00 0.00 0.00 0.00 0.00 0.00 0.00 0.00 0.00 0.00 0.00 0.00 0.00 0.00 0.00 0.01
0.01 0.01 0.01 0.00 0.00 0.00 0.00 0.00 0.00 0.00 0.01 0.01 0.00 0.00 0.00 0.00 0.00 0.00 0.00 0.00 0.00 0.00 0.00 0.00 0.00 0.00 0.00 0.00 0.00 0.00 0.00 0.00 0.00 0.00 0.00 0.01 0.01 0.00 0.00 0.00 0.00 0.00 0.00
0.01 0.01 0.01 0.00 0.00 0.00 0.00 0.00 0.00 0.00 0.00 0.00 0.00 0.00 0.00 0.00 0.00 0.00 0.00 0.00 0.00 0.00 0.00 0.00 0.00 0.00 0.00 0.00 0.00 0.00 0.00 0.00 0.00 0.00 0.00 0.00 0.00 0.00 0.00 0.00 0.00 0.00 0.00
0.01 0.00 0.00 0.00 0.00 0.00 0.00 0.00 0.00 0.00 0.00 0.00 0.00 0.00 0.00 0.00 0.00 0.00 0.00 0.00 0.00 0.00 0.00 0.00 0.00 0.00 0.00 0.00 0.00 0.00 0.00 0.00 0.00 0.00 0.00 0.00 0.00 0.00 0.00 0.00 0.00 0.00 0.00
0.01 0.00 0.00 0.00 0.00 0.00 0.00 0.00 0.00 0.00 0.00 0.00 0.00 0.00 0.00 0.00 0.00 0.00 0.00 0.00 0.00 0.00 0.00 0.00 0.00 0.00 0.00 0.00 0.00 0.00 0.00 0.00 0.00 0.00 0.00 0.00 0.00 0.00 0.00 0.00 0.00 0.00 0.00
0.00 0.00 0.00 0.00 0.00 0.00 0.00 0.00 0.00 0.00 0.00 0.00 0.00 0.00 0.00 0.00 0.00 0.00 0.00 0.00 0.00 0.00 0.00 0.00 0.00 0.00 0.00 0.00 0.00 0.00 0.00 0.00 0.00 0.00 0.00 0.00 0.00 0.00 0.00 0.00 0.00 0.00 0.00
0.00 0.00 0.00 0.00 0.01 0.01 0.00 0.00 0.00 0.00 0.00 0.00 0.00 0.00 0.00 0.00 0.00 0.00 0.00 0.00 0.00 0.00 0.00 0.00 0.00 0.00 0.00 0.00 0.00 0.00 0.00 0.00 0.00 0.00 0.00 0.00 0.00 0.00 0.00 0.00 0.00 0.00 0.00
0.00 0.00 0.00 0.00 0.00 0.00 0.00 0.00 0.00 0.00 0.00 0.00 0.00 0.00 0.00 0.00 0.00 0.00 0.00 0.00 0.00 0.00 0.00 0.00 0.00 0.00 0.00 0.00 0.00 0.00 0.00 0.00 0.00 0.00 0.00 0.01 0.01 0.01 0.01 0.01 0.00 0.00 0.00
0.00 0.00 0.00 0.00 0.00 0.00 0.00 0.00 0.00 0.00 0.00 0.00 0.00 0.00 0.00 0.00 0.00 0.00 0.00 0.00 0.00 0.00 0.00 0.00 0.00 0.00 0.00 0.00 0.00 0.00 0.00 0.00 0.00 0.00 0.01 0.01 0.01 0.01 0.02 0.02 0.01 0.01 0.01
0.00 0.00 0.00 0.00 0.00 0.00 0.00 0.00 0.00 0.00 0.00 0.00 0.00 0.00 0.00 0.00 0.00 0.00 0.00 0.00 0.00 0.00 0.00 0.00 0.00 0.00 0.00 0.00 0.00 0.00 0.00 0.00 0.00 0.01 0.02 0.02 0.02 0.02 0.01 0.02 0.03 0.02 0.01
0.00 0.00 0.00 0.00 0.00 0.00 0.00 0.00 0.00 0.00 0.00 0.00 0.00 0.00 0.00 0.00 0.00 0.00 0.00 0.00 0.01 0.00 0.00 0.00 0.00 0.00 0.00 0.00 0.00 0.00 0.00 0.00 0.01 0.01 0.01 0.01 0.02 0.02 0.02 0.02 0.02 0.02 0.01
MSLP
1015.40 1015.75 1016.10 1016.41 1016.67 1016.88 1017.07 1017.25 1017.45 1017.67 1017.90 1018.13 1018.33 1018.49 1018.58 1018.61 1018.58 1018.51 1018.41 1018.30 1018.18 1018.04 1017.88 1017.70 1017.49 1017.24 1016.98 1016.71 1016.45 1016.23 1016.06 1015.95 1015.89 1015.87 1015.86 1015.85 1015.82 1015.74 1015.61 1015.44 1015.24 1015.04 1014.86
1015.16 1015.58 1016.01 1016.38 1016.70 1016.95 1017.16 1017.36 1017.56 1017.78 1018.02 1018.26 1018.47 1018.64 1018.74 1018.77 1018.74 1018.67 1018.57 1018.46 1018.34 1018.22 1018.10 1017.96 1017.79 1017.59 1017.37 1017.13 1016.89 1016.66 1016.48 1016.35 1016.27 1016.22 1016.21 1016.20 1016.17 1016.10 1015.99 1015.84 1015.66 1015.47 1015.29
1014.90 1015.39 1015.87 1016.31 1016.67 1016.95 1017.18 1017.39 1017.60 1017.83 1018.07 1018.32 1018.53 1018.71 1018.82 1018.85 1018.83 1018.75 1018.65 1018.54 1018.44 1018.35 1018.27 1018.18 1018.07 1017.94 1017.77 1017.57 1017.36 1017.15 1016.96 1016.81 1016.70 1016.64 1016.61 1016.59 1016.56 1016.52 1016.43 1016.31 1016.16 1015.99 1015.83
1014.60 1015.16 1015.70 1016.19 1016.58 1016.89 1017.14 1017.35 1017.57 1017.79 1018.04 1018.29 1018.51 1018.69 1018.81 1018.86 1018.83 1018.77 1018.67 1018.58 1018.50 1018.45 1018.41 1018.38 1018.34 1018.27 1018.17 1018.03 1017.86 1017.67 1017.49 1017.33 1017.20 1017.12 1017.07 1017.04 1017.02 1016.99 1016.93 1016.84 1016.72 1016.59 1016.44
1014.30 1014.91 1015.50 1016.02 1016.44 1016.77 1017.03 1017.25 1017.46 1017.69 1017.93 1018.18 1018.42 1018.61 1018.74 1018.80 1018.80 1018.74 1018.67 1018.59 1018.54 1018.52 1018.53 1018.56 1018.58 1018.59 1018.55 1018.47 1018.35 1018.20 1018.04 1017.88 1017.74 1017.64 1017.58 1017.54 1017.52 1017.50 1017.47 1017.41 1017.32 1017.22 1017.10
1014.01 1014.66 1015.29 1015.83 1016.28 1016.62 1016.88 1017.10 1017.31 1017.54 1017.78 1018.04 1018.28 1018.49 1018.64 1018.72 1018.73 1018.70 1018.65 1018.60 1018.57 1018.58 1018.63 1018.70 1018.79 1018.85 1018.88 1018.86 1018.80 1018.69 1018.55 1018.41 1018.29 1018.18 1018.11 1018.07 1018.06 1018.05 1018.03 1017.99 1017.93 1017.85 1017.75
1013.75 1014.43 1015.09 1015.65 1016.11 1016.46 1016.73 1016.95 1017.15 1017.38 1017.62 1017.88 1018.13 1018.35 1018.52 1018.63 1018.67 1018.66 1018.63 1018.60 1018.59 1018.62 1018.70 1018.80 1018.92 1019.04 1019.12 1019.15 1019.14 1019.08 1018.99 1018.89 1018.78 1018.70 1018.63 1018.60 1018.59 1018.59 1018.58 1018.57 1018.53 1018.46 1018.38
1013.55 1014.25 1014.92 1015.50 1015.97 1016.33 1016.60 1016.82 1017.03 1017.25 1017.49 1017.75 1018.00 1018.24 1018.42 1018.55 1018.61 1018.63 1018.62 1018.60 1018.61 1018.65 1018.73 1018.85 1018.99 1019.13 1019.25 1019.33 1019.37 1019.37 1019.33 1019.27 1019.21 1019.15 1019.11 1019.10 1019.10 1019.11 1019.12 1019.11 1019.09 1019.04 1018.96
1013.39 1014.10 1014.78 1015.38 1015.86 1016.24 1016.52 1016.75 1016.96 1017.18 1017.42 1017.67 1017.92 1018.16 1018.36 1018.50 1018.58 1018.62 1018.62 1018.62 1018.63 1018.67 1018.75 1018.86 1019.00 1019.16 1019.30 1019.41 1019.50 1019.55 1019.57 1019.57 1019.56 1019.55 1019.55 1019.56 1019.58 1019.60 1019.62 1019.63 1019.61 1019.57 1019.51
1013.25 1013.97 1014.66 1015.28 1015.78 1016.18 1016.49 1016.74 1016.96 1017.17 1017.41 1017.65 1017.90 1018.13 1018.33 1018.49 1018.58 1018.63 1018.65 1018.66 1018.67 1018.71 1018.77 1018.88 1019.01 1019.16 1019.31 1019.45 1019.58 1019.68 1019.76 1019.82 1019.87 1019.91 1019.96 1020.01 1020.05 1020.09 1020.12 1020.13 1020.12 1020.08 1020.03
1013.07 1013.81 1014.52 1015.16 1015.70 1016.13 1016.47 1016.75 1016.99 1017.22 1017.45 1017.69 1017.93 1018.16 1018.36 1018.52 1018.63 1018.70 1018.73 1018.75 1018.77 1018.80 1018.86 1018.95 1019.07 1019.22 1019.38 1019.54 1019.69 1019.84 1019.97 1020.09 1020.19 1020.30 1020.39 1020.47 1020.54 1020.59 1020.62 1020.63 1020.62 1020.58 1020.53
1012.81 1013.56 1014.29 1014.96 1015.55 1016.03 1016.43 1016.75 1017.02 1017.27 1017.52 1017.76 1018.00 1018.23 1018.44 1018.60 1018.73 1018.82 1018.88 1018.92 1018.95 1018.99 1019.06 1019.14 1019.26 1019.40 1019.56 1019.74 1019.91 1020.09 1020.26 1020.43 1020.59 1020.73 1020.86 1020.97 1021.05 1021.11 1021.14 1021.14 1021.12 1021.08 1021.02
1012.43 1013.19 1013.94 1014.65 1015.29 1015.83 1016.29 1016.67 1017.00 1017.29 1017.57 1017.83 1018.08 1018.32 1018.54 1018.73 1018.88 1019.01 1019.10 1019.17 1019.24 1019.31 1019.39 1019.49 1019.61 1019.75 1019.92 1020.10 1020.29 1020.48 1020.68 1020.87 1021.06 1021.23 1021.37 1021.50 1021.59 1021.65 1021.67 1021.66 1021.62 1021.56 1021.50
1011.91 1012.66 1013.44 1014.19 1014.87 1015.49 1016.02 1016.47 1016.87 1017.23 1017.55 1017.85 1018.14 1018.41 1018.66 1018.88 1019.07 1019.24 1019.38 1019.51 1019.62 1019.73 1019.84 1019.97 1020.10 1020.26 1020.42 1020.60 1020.80 1020.99 1021.19 1021.39 1021.58 1021.76 1021.91 1022.03 1022.11 1022.16 1022.17 1022.15 1022.09 1022.02 1021.94
1011.25 1012.00 1012.78 1013.56 1014.29 1014.97 1015.58 1016.12 1016.60 1017.03 1017.43 1017.79 1018.13 1018.45 1018.75 1019.02 1019.27 1019.50 1019.70 1019.89 1020.05 1020.22 1020.37 1020.53 1020.68 1020.85 1021.01 1021.19 1021.37 1021.55 1021.74 1021.92 1022.10 1022.25 1022.39 1022.50 1022.57 1022.61 1022.60 1022.57 1022.50 1022.42 1022.33
1010.50 1011.22 1012.00 1012.79 1013.57 1014.30 1014.98 1015.61 1016.18 1016.70 1017.17 1017.62 1018.03 1018.42 1018.78 1019.12 1019.43 1019.72 1019.99 1020.24 1020.47 1020.68 1020.88 1021.07 1021.25 1021.42 1021.59 1021.75 1021.91 1022.07 1022.22 1022.37 1022.52 1022.65 1022.76 1022.84 1022.90 1022.93 1022.92 1022.88 1022.82 1022.73 1022.63
1009.72 1010.41 1011.16 1011.95 1012.74 1013.51 1014.25 1014.95 1015.60 1016.21 1016.78 1017.31 1017.80 1018.27 1018.70 1019.11 1019.49 1019.85 1020.17 1020.48 1020.77 1021.03 1021.26 1021.48 1021.68 1021.86 1022.02 1022.17 1022.30 1022.43 1022.55 1022.66 1022.77 1022.86 1022.95 1023.02 1023.07 1023.09 1023.09 1023.06 1023.00 1022.93 1022.83
1009.00 1009.63 1010.33 1011.09 1011.87 1012.65 1013.43 1014.19 1014.91 1015.60 1016.25 1016.86 1017.44 1017.98 1018.48 1018.95 1019.40 1019.81 1020.19 1020.54 1020.86 1021.16 1021.43 1021.67 1021.87 1022.06 1022.21 1022.35 1022.46 1022.56 1022.65 1022.73 1022.81 1022.88 1022.94 1023.00 1023.04 1023.08 1023.09 1023.08 1023.05 1022.99 1022.92
1008.40 1008.95 1009.58 1010.28 1011.03 1011.80 1012.59 1013.37 1014.14 1014.89 1015.60 1016.28 1016.93 1017.53 1018.10 1018.62 1019.11 1019.56 1019.98 1020.36 1020.71 1021.03 1021.32 1021.57 1021.79 1021.98 1022.14 1022.27 1022.38 1022.46 1022.54 1022.60 1022.65 1022.71 1022.76 1022.81 1022.86 1022.91 1022.94 1022.96 1022.96 1022.93 1022.87
1007.96 1008.41 1008.96 1009.58 1010.27 1011.00 1011.77 1012.55 1013.33 1014.11 1014.87 1015.59 1016.28 1016.94 1017.54 1018.11 1018.63 1019.11 1019.54 1019.95 1020.31 1020.64 1020.94 1021.21 1021.45 1021.65 1021.83 1021.97 1022.08 1022.18 1022.25 1022.31 1022.36 1022.41 1022.46 1022.52 1022.58 1022.63 1022.68 1022.72 1022.74 1022.74 1022.70
1007.65 1008.01 1008.46 1009.00 1009.61 1010.28 1011.00 1011.75 1012.53 1013.30 1014.07 1014.82 1015.53 1016.21 1016.85 1017.43 1017.97 1018.46 1018.91 1019.32 1019.70 1020.04 1020.36 1020.65 1020.91 1021.14 1021.34 1021.51 1021.66 1021.77 1021.87 1021.94 1022.00 1022.06 1022.11 1022.17 1022.23 1022.29 1022.34 1022.39 1022.42 1022.41 1022.38
1007.46 1007.72 1008.08 1008.52 1009.04 1009.63 1010.29 1010.99 1011.73 1012.49 1013.24 1013.99 1014.71 1015.40 1016.04 1016.63 1017.18 1017.68 1018.13 1018.55 1018.94 1019.30 1019.63 1019.95 1020.25 1020.52 1020.77 1020.99 1021.18 1021.33 1021.46 1021.56 1021.64 1021.70 1021.76 1021.81 1021.86 1021.90 1021.94 1021.97 1021.98 1021.96 1021.91
1007.33 1007.49 1007.75 1008.10 1008.53 1009.05 1009.63 1010.27 1010.96 1011.67 1012.40 1013.13 1013.84 1014.52 1015.16 1015.75 1016.30 1016.81 1017.27 1017.70 1018.10 1018.48 1018.85 1019.20 1019.54 1019.87 1020.17 1020.45 1020.69 1020.89 1021.06 1021.19 1021.29 1021.36 1021.40 1021.43 1021.46 1021.47 1021.47 1021.46 1021.43 1021.37 1021.29
1007.20 1007.27 1007.44 1007.70 1008.05 1008.48 1008.99 1009.56 1010.19 1010.86 1011.55 1012.24 1012.93 1013.60 1014.23 1014.83 1015.38 1015.89 1016.37 1016.81 1017.24 1017.65 1018.05 1018.44 1018.83 1019.21 1019.57 1019.90 1020.19 1020.45 1020.65 1020.81 1020.91 1020.98 1021.01 1021.01 1020.99 1020.96 1020.91 1020.84 1020.75 1020.65 1020.52
1007.02 1007.02 1007.11 1007.28 1007.55 1007.91 1008.35 1008.85 1009.42 1010.04 1010.68 1011.34 1012.01 1012.66 1013.28 1013.87 1014.43 1014.95 1015.44 1015.91 1016.36 1016.79 1017.23 1017.66 1018.09 1018.52 1018.92 1019.30 1019.63 1019.92 1020.15 1020.32 1020.43 1020.49 1020.50 1020.47 1020.40 1020.32 1020.21 1020.09 1019.95 1019.79 1019.61
1006.81 1006.73 1006.74 1006.84 1007.04 1007.32 1007.69 1008.13 1008.64 1009.20 1009.80 1010.42 1011.05 1011.68 1012.29 1012.88 1013.44 1013.97 1014.47 1014.95 1015.42 1015.88 1016.34 1016.80 1017.26 1017.72 1018.15 1018.55 1018.92 1019.23 1019.47 1019.65 1019.76 1019.80 1019.79 1019.73 1019.63 1019.51 1019.36 1019.20 1019.01 1018.82 1018.61
Thickness
5739 5741 5741 5741 5741 5740 5740 5739 5738 5737 5735 5733 5731 5728 5727 5727 5726 5724 5722 5721 5720 5720 5719 5719 5717 5716 5715 5714 5714 5713 5712 5711 5713 5712 5712 5715 5716 5715 5714 5716 5717 5719 5719
5736 5736 5738 5739 5739 5738 5738 5738 5736 5735 5734 5731 5731 5728 5726 5726 5724 5722 5720 5720 5719 5717 5718 5717 5716 5714 5712 5711 5711 5709 5709 5709 5710 5709 5707 5707 5709 5710 5712 5712 5713 5715 5717
5735 5735 5735 5736 5736 5736 5736 5736 5735 5734 5732 5730 5729 5726 5724 5723 5722 5721 5719 5718 5717 5716 5715 5715 5714 5713 5712 5710 5708 5708 5705 5705 5707 5708 5706 5702 5700 5702 5708 5709 5711 5712 5713
5735 5735 5735 5735 5735 5735 5736 5736 5734 5734 5732 5730 5728 5726 5723 5721 5721 5720 5719 5717 5716 5714 5713 5713 5712 5712 5711 5709 5708 5707 5706 5704 5703 5705 5705 5706 5703 5699 5699 5705 5708 5709 5711
5735 5734 5735 5734 5735 5735 5734 5734 5733 5732 5730 5730 5726 5725 5724 5723 5721 5720 5718 5717 5716 5714 5712 5711 5711 5710 5710 5708 5706 5705 5705 5704 5703 5702 5703 5702 5702 5704 5700 5697 5701 5706 5709
5735 5734 5734 5734 5733 5732 5731 5730 5729 5728 5727 5726 5725 5724 5722 5720 5719 5717 5717 5716 5716 5714 5712 5711 5710 5710 5709 5707 5705 5704 5703 5703 5702 5702 5702 5700 5699 5698 5699 5697 5698 5700 5704
5735 5733 5731 5730 5729 5728 5728 5728 5727 5725 5725 5725 5724 5723 5722 5720 5719 5718 5716 5715 5715 5714 5712 5711 5710 5709 5707 5706 5705 5704 5703 5703 5701 5701 5701 5700 5699 5700 5698 5697 5697 5697 5702
5735 5733 5732 5730 5728 5727 5727 5726 5725 5724 5723 5723 5723 5722 5721 5720 5719 5717 5716 5715 5714 5713 5711 5710 5709 5707 5706 5705 5704 5704 5703 5703 5702 5700 5699 5699 5699 5699 5698 5696 5694 5695 5699
5733 5732 5731 5729 5728 5727 5726 5725 5724 5723 5722 5722 5721 5720 5720 5718 5717 5716 5715 5714 5713 5711 5710 5709 5708 5706 5705 5704 5704 5703 5702 5701 5700 5699 5699 5698 5698 5698 5697 5696 5695 5692 5691
5732 5731 5729 5728 5728 5726 5725 5724 5723 5722 5721 5720 5719 5717 5717 5716 5715 5715 5713 5712 5712 5710 5709 5708 5707 5705 5704 5703 5702 5701 5699 5699 5697 5696 5696 5696 5697 5696 5695 5695 5695 5694 5692
5730 5729 5728 5727 5726 5724 5722 5720 5720 5720 5718 5718 5717 5715 5714 5713 5713 5712 5710 5710 5709 5708 5707 5706 5705 5704 5702 5702 5700 5700 5698 5698 5698 5697 5696 5695 5694 5695 5695 5694 5693 5692 5691
5729 5728 5727 5725 5723 5721 5720 5719 5719 5718 5716 5715 5715 5713 5712 5711 5710 5709 5708 5708 5707 5706 5705 5703 5702 5701 5700 5699 5698 5697 5696 5696 5695 5694 5694 5693 5693 5692 5692 5691 5691 5691 5690
5726 5725 5723 5722 5720 5719 5718 5717 5716 5715 5714 5712 5711 5710 5709 5708 5707 5706 5705 5704 5704 5702 5701 5700 5698 5697 5697 5696 5695 5695 5694 5693 5692 5692 5691 5691 5690 5690 5689 5688 5689 5688 5688
5724 5723 5720 5719 5717 5717 5715 5714 5713 5713 5710 5708 5708 5707 5706 5704 5703 5702 5700 5700 5699 5698 5697 5696 5694 5693 5693 5692 5692 5691 5691 5690 5689 5688 5688 5687 5686 5685 5685 5685 5685 5684 5684
5722 5721 5719 5717 5715 5714 5713 5712 5710 5709 5707 5705 5704 5703 5702 5700 5698 5696 5695 5694 5693 5692 5691 5690 5689 5688 5687 5686 5685 5686 5686 5685 5685 5684 5683 5681 5678 5675 5676 5677 5678 5679 5679
5721 5720 5719 5717 5715 5713 5712 5710 5707 5706 5704 5702 5700 5698 5696 5694 5692 5691 5690 5688 5687 5686 5685 5685 5683 5682 5681 5677 5676 5678 5680 5681 5680 5679 5678 5677 5674 5672 5670 5669 5669 5669 5671
5722 5720 5719 5717 5716 5715 5712 5707 5706 5703 5701 5698 5696 5693 5691 5689 5688 5686 5685 5682 5681 5680 5679 5678 5677 5677 5673 5670 5670 5670 5674 5675 5674 5673 5672 5671 5669 5667 5669 5668 5666 5666 5664
5722 5721 5719 5716 5715 5713 5710 5706 5702 5700 5697 5694 5692 5689 5687 5685 5683 5681 5679 5678 5678 5675 5674 5673 5672 5670 5667 5664 5664 5664 5668 5668 5667 5666 5665 5664 5663 5661 5660 5663 5663 5663 5662
5724 5721 5719 5716 5713 5710 5707 5702 5698 5696 5693 5690 5688 5686 5684 5681 5679 5677 5675 5674 5672 5670 5669 5668 5666 5664 5662 5658 5657 5657 5661 5662 5661 5659 5657 5656 5655 5650 5649 5653 5655 5656 5656
5721 5718 5715 5712 5709 5706 5703 5699 5695 5692 5689 5687 5686 5684 5681 5678 5675 5673 5671 5669 5667 5665 5664 5662 5661 5659 5657 5652 5650 5649 5654 5654 5654 5652 5651 5646 5644 5642 5641 5645 5647 5647 5648
5717 5714 5711 5707 5705 5702 5699 5695 5692 5689 5687 5684 5681 5678 5676 5673 5671 5668 5666 5664 5662 5660 5659 5656 5655 5653 5651 5647 5644 5641 5644 5644 5644 5644 5643 5641 5636 5634 5633 5633 5636 5635 5634
5711 5709 5705 5702 5699 5697 5694 5691 5688 5686 5681 5678 5675 5673 5671 5669 5666 5662 5660 5659 5657 5654 5653 5651 5649 5647 5645 5641 5638 5634 5633 5632 5634 5634 5634 5632 5627 5626 5625 5625 5624 5623 5623
5706 5704 5700 5696 5693 5692 5690 5686 5683 5679 5675 5672 5669 5667 5665 5662 5660 5658 5655 5653 5651 5649 5648 5646 5644 5642 5639 5636 5631 5628 5625 5624 5624 5626 5623 5620 5619 5618 5619 5617 5615 5614 5616
5700 5698 5695 5691 5688 5685 5683 5681 5677 5673 5670 5667 5664 5662 5660 5657 5655 5651 5650 5647 5645 5643 5641 5639 5637 5635 5632 5629 5626 5623 5621 5618 5617 5617 5615 5613 5612 5610 5609 5609 5609 5608 5606
5695 5693 5691 5686 5682 5679 5676 5674 5671 5668 5665 5662 5659 5656 5653 5651 5647 5644 5641 5640 5637 5635 5631 5630 5628 5626 5623 5618 5613 5611 5612 5610 5609 5607 5607 5608 5606 5606 5605 5603 5601 5598 5596
5690 5687 5683 5679 5676 5673 5670 5667 5665 5662 5660 5657 5653 5649 5646 5642 5640 5637 5632 5627 5625 5622 5619 5616 5615 5614 5609 5605 5603 5600 5598 5596 5595 5595 5598 5598 5597 5595 5594 5592 5590 5588 5586